Time,TemperatureF,DewpointF,PressureIn,WindDirection,WindDirectionDegrees,WindSpeedMPH,WindSpeedGustMPH,Humidity,HourlyPrecipIn,Conditions,Clouds,dailyrainin,SoftwareType,DateUTC
2013-06-07 00:01:00,54.8,49.4,29.92,South,176,3.0,3.0,82,0.05,,,0.01,Wunderground v.1.15,2013-06-07 04:01:00,
2013-06-07 00:02:00,54.8,49.4,29.92,ESE,117,3.0,6.0,82,0.05,,,0.01,Wunderground v.1.15,2013-06-07 04:02:00,
2013-06-07 00:03:00,54.8,49.4,29.92,South,180,3.0,6.0,82,0.05,,,0.01,Wunderground v.1.15,2013-06-07 04:03:00,
2013-06-07 00:04:00,54.8,49.4,29.92,SE,135,4.0,6.0,82,0.05,,,0.01,Wunderground v.1.15,2013-06-07 04:04:00,
2013-06-07 00:10:00,54.8,49.4,29.92,SSE,155,4.0,7.0,82,0.05,,,0.01,Wunderground v.1.15,2013-06-07 04:10:00,
2013-06-07 00:11:00,54.8,49.4,29.92,SE,131,4.0,7.0,82,0.05,,,0.01,Wunderground v.1.15,2013-06-07 04:11:00,
2013-06-07 00:17:00,54.9,49.5,29.92,SSE,153,4.0,7.0,82,0.05,,,0.02,Wunderground v.1.15,2013-06-07 04:17:00,
2013-06-07 00:22:00,54.9,49.5,29.92,SSE,161,3.0,3.0,82,0.05,,,0.02,Wunderground v.1.15,2013-06-07 04:22:00,
2013-06-07 00:27:00,54.9,49.5,29.92,SE,129,3.0,4.0,82,0.04,,,0.03,Wunderground v.1.15,2013-06-07 04:27:00,
2013-06-07 00:32:00,55.0,49.6,29.92,SSW,210,3.0,6.0,82,0.04,,,0.03,Wunderground v.1.15,2013-06-07 04:32:00,
2013-06-07 00:38:00,55.0,49.6,29.92,SE,144,3.0,6.0,82,0.05,,,0.04,Wunderground v.1.15,2013-06-07 04:38:00,
2013-06-07 00:44:00,55.1,49.7,29.92,ESE,117,3.0,7.0,82,0.05,,,0.04,Wunderground v.1.15,2013-06-07 04:44:00,
2013-06-07 00:50:00,55.1,49.7,29.91,ESE,105,3.0,3.0,82,0.05,,,0.04,Wunderground v.1.15,2013-06-07 04:50:00,
2013-06-07 00:55:00,55.1,49.7,29.92,ESE,120,3.0,9.0,82,0.04,,,0.05,Wunderground v.1.15,2013-06-07 04:55:00,
2013-06-07 01:00:00,55.1,50.0,29.91,South,187,3.0,4.0,83,0.04,,,0.05,Wunderground v.1.15,2013-06-07 05:00:00,
2013-06-07 01:05:00,55.0,49.9,29.91,SE,124,2.0,7.0,83,0.05,,,0.06,Wunderground v.1.15,2013-06-07 05:05:00,
2013-06-07 01:11:00,55.0,49.9,29.91,South,174,3.0,3.0,83,0.05,,,0.06,Wunderground v.1.15,2013-06-07 05:11:00,
2013-06-07 01:16:00,54.9,49.8,29.91,SE,142,2.0,3.0,83,0.04,,,0.06,Wunderground v.1.15,2013-06-07 05:16:00,
2013-06-07 01:21:00,54.9,49.8,29.91,ESE,116,2.0,4.0,83,0.04,,,0.07,Wunderground v.1.15,2013-06-07 05:21:00,
2013-06-07 01:27:00,54.9,49.8,29.91,SSE,154,3.0,4.0,83,0.04,,,0.07,Wunderground v.1.15,2013-06-07 05:27:00,
2013-06-07 01:32:00,54.8,49.7,29.91,SSE,152,3.0,5.0,83,0.05,,,0.08,Wunderground v.1.15,2013-06-07 05:32:00,
2013-06-07 01:38:00,54.8,49.7,29.91,SSE,163,3.0,11.0,83,0.05,,,0.08,Wunderground v.1.15,2013-06-07 05:38:00,
2013-06-07 01:44:00,54.8,49.7,29.91,SSE,150,2.0,4.0,83,0.04,,,0.08,Wunderground v.1.15,2013-06-07 05:44:00,
2013-06-07 01:49:00,54.7,49.6,29.90,East,82,2.0,4.0,83,0.04,,,0.09,Wunderground v.1.15,2013-06-07 05:49:00,
2013-06-07 01:54:00,54.8,49.7,29.90,SSE,162,2.0,4.0,83,0.04,,,0.09,Wunderground v.1.15,2013-06-07 05:54:00,
2013-06-07 02:00:00,54.7,49.6,29.90,SSE,157,3.0,6.0,83,0.05,,,0.10,Wunderground v.1.15,2013-06-07 06:00:00,
2013-06-07 02:05:00,54.7,49.6,29.90,ESE,109,3.0,6.0,83,0.05,,,0.10,Wunderground v.1.15,2013-06-07 06:05:00,
2013-06-07 02:11:00,54.7,49.3,29.90,South,172,3.0,4.0,82,0.05,,,0.10,Wunderground v.1.15,2013-06-07 06:11:00,
2013-06-07 02:16:00,54.7,49.3,29.89,East,88,2.0,6.0,82,0.04,,,0.11,Wunderground v.1.15,2013-06-07 06:16:00,
2013-06-07 02:21:00,54.7,49.3,29.89,SE,144,3.0,5.0,82,0.04,,,0.11,Wunderground v.1.15,2013-06-07 06:21:00,
2013-06-07 02:27:00,54.7,49.3,29.89,SSW,209,3.0,5.0,82,0.04,,,0.11,Wunderground v.1.15,2013-06-07 06:27:00,
2013-06-07 02:32:00,54.7,49.3,29.89,SE,144,3.0,7.0,82,0.05,,,0.12,Wunderground v.1.15,2013-06-07 06:32:00,
2013-06-07 02:37:00,54.7,49.3,29.89,SSE,157,3.0,7.0,82,0.05,,,0.12,Wunderground v.1.15,2013-06-07 06:37:00,
2013-06-07 02:42:00,54.7,49.3,29.89,ESE,115,3.0,7.0,82,0.04,,,0.12,Wunderground v.1.15,2013-06-07 06:42:00,
2013-06-07 02:48:00,54.8,49.4,29.89,SE,142,3.0,7.0,82,0.04,,,0.13,Wunderground v.1.15,2013-06-07 06:48:00,
2013-06-07 02:53:00,54.8,49.4,29.89,ESE,121,2.0,3.0,82,0.04,,,0.13,Wunderground v.1.15,2013-06-07 06:53:00,
2013-06-07 02:58:00,54.9,49.5,29.89,SSE,164,2.0,6.0,82,0.04,,,0.14,Wunderground v.1.15,2013-06-07 06:58:00,
2013-06-07 03:04:00,54.9,49.5,29.89,SSE,150,2.0,4.0,82,0.04,,,0.14,Wunderground v.1.15,2013-06-07 07:04:00,
2013-06-07 03:09:00,54.9,49.5,29.88,SE,133,2.0,4.0,82,0.04,,,0.14,Wunderground v.1.15,2013-06-07 07:09:00,
2013-06-07 03:15:00,54.9,49.5,29.88,SSW,198,2.0,10.0,82,0.00,,,0.14,Wunderground v.1.15,2013-06-07 07:15:00,
2013-06-07 03:20:00,54.9,49.5,29.89,South,171,3.0,3.0,82,0.00,,,0.15,Wunderground v.1.15,2013-06-07 07:20:00,
2013-06-07 03:25:00,54.9,49.5,29.88,East,99,3.0,6.0,82,0.00,,,0.15,Wunderground v.1.15,2013-06-07 07:25:00,
2013-06-07 03:30:00,55.0,49.6,29.88,ESE,108,2.0,3.0,82,0.04,,,0.16,Wunderground v.1.15,2013-06-07 07:30:00,
2013-06-07 03:36:00,55.0,49.6,29.88,ENE,67,2.0,5.0,82,0.04,,,0.16,Wunderground v.1.15,2013-06-07 07:36:00,
2013-06-07 03:41:00,55.0,49.6,29.88,ENE,78,3.0,3.0,82,0.04,,,0.16,Wunderground v.1.15,2013-06-07 07:41:00,
2013-06-07 03:47:00,55.1,49.7,29.88,NE,47,3.0,7.0,82,0.04,,,0.16,Wunderground v.1.15,2013-06-07 07:47:00,
2013-06-07 03:52:00,55.1,49.7,29.87,NE,42,3.0,3.0,82,0.00,,,0.17,Wunderground v.1.15,2013-06-07 07:52:00,
2013-06-07 03:57:00,55.1,49.7,29.88,NE,36,2.0,3.0,82,0.00,,,0.17,Wunderground v.1.15,2013-06-07 07:57:00,
2013-06-07 04:02:00,55.1,49.7,29.87,East,91,2.0,4.0,82,0.00,,,0.17,Wunderground v.1.15,2013-06-07 08:02:00,
2013-06-07 04:08:00,55.1,49.7,29.87,NE,46,2.0,4.0,82,0.04,,,0.18,Wunderground v.1.15,2013-06-07 08:08:00,
2013-06-07 04:13:00,55.1,49.7,29.87,ENE,58,3.0,4.0,82,0.04,,,0.18,Wunderground v.1.15,2013-06-07 08:13:00,
2013-06-07 04:19:00,55.2,49.8,29.87,ESE,121,2.0,4.0,82,0.04,,,0.18,Wunderground v.1.15,2013-06-07 08:19:00,
2013-06-07 04:24:00,55.2,49.8,29.87,NE,41,2.0,9.0,82,0.00,,,0.19,Wunderground v.1.15,2013-06-07 08:24:00,
2013-06-07 04:29:00,55.2,49.8,29.87,NE,38,2.0,9.0,82,0.00,,,0.19,Wunderground v.1.15,2013-06-07 08:29:00,
2013-06-07 04:35:00,55.2,49.8,29.87,NE,42,2.0,5.0,82,0.00,,,0.19,Wunderground v.1.15,2013-06-07 08:35:00,
2013-06-07 04:40:00,55.3,49.9,29.87,NE,38,2.0,2.0,82,0.04,,,0.20,Wunderground v.1.15,2013-06-07 08:40:00,
2013-06-07 04:45:00,55.3,49.9,29.87,NE,51,2.0,6.0,82,0.04,,,0.20,Wunderground v.1.15,2013-06-07 08:45:00,
2013-06-07 04:51:00,55.3,49.9,29.88,SE,124,2.0,3.0,82,0.04,,,0.20,Wunderground v.1.15,2013-06-07 08:51:00,
2013-06-07 04:56:00,55.3,49.9,29.88,SE,128,2.0,3.0,82,0.00,,,0.20,Wunderground v.1.15,2013-06-07 08:56:00,
2013-06-07 05:01:00,55.3,49.9,29.88,NE,42,2.0,6.0,82,0.00,,,0.21,Wunderground v.1.15,2013-06-07 09:01:00,
2013-06-07 05:07:00,55.3,49.9,29.88,NE,45,3.0,6.0,82,0.00,,,0.21,Wunderground v.1.15,2013-06-07 09:07:00,
2013-06-07 05:12:00,55.3,49.9,29.88,NE,55,2.0,3.0,82,0.00,,,0.21,Wunderground v.1.15,2013-06-07 09:12:00,
2013-06-07 05:17:00,55.4,50.0,29.88,SE,132,2.0,5.0,82,0.04,,,0.22,Wunderground v.1.15,2013-06-07 09:17:00,
2013-06-07 05:23:00,55.4,50.0,29.88,NE,42,2.0,4.0,82,0.04,,,0.22,Wunderground v.1.15,2013-06-07 09:23:00,
2013-06-07 05:28:00,55.3,49.9,29.88,NNE,27,3.0,4.0,82,0.04,,,0.22,Wunderground v.1.15,2013-06-07 09:28:00,
2013-06-07 05:33:00,55.3,49.9,29.88,East,88,2.0,3.0,82,0.00,,,0.23,Wunderground v.1.15,2013-06-07 09:33:00,
2013-06-07 05:39:00,55.4,50.0,29.88,ENE,63,1.0,3.0,82,0.00,,,0.23,Wunderground v.1.15,2013-06-07 09:39:00,
2013-06-07 05:44:00,55.4,50.0,29.88,East,87,1.0,4.0,82,0.00,,,0.23,Wunderground v.1.15,2013-06-07 09:44:00,
2013-06-07 05:49:00,55.4,50.0,29.88,ENE,62,2.0,4.0,82,0.00,,,0.23,Wunderground v.1.15,2013-06-07 09:49:00,
2013-06-07 05:55:00,55.4,50.0,29.88,ENE,57,2.0,5.0,82,0.00,,,0.24,Wunderground v.1.15,2013-06-07 09:55:00,
2013-06-07 06:00:00,55.4,50.0,29.89,NE,55,2.0,2.0,82,0.00,,,0.24,Wunderground v.1.15,2013-06-07 10:00:00,
2013-06-07 06:05:00,55.4,50.0,29.89,NE,41,2.0,10.0,82,0.00,,,0.24,Wunderground v.1.15,2013-06-07 10:05:00,
2013-06-07 06:11:00,55.3,49.9,29.89,East,96,2.0,2.0,82,0.00,,,0.24,Wunderground v.1.15,2013-06-07 10:11:00,
2013-06-07 06:16:00,55.4,50.0,29.89,East,94,2.0,5.0,82,0.00,,,0.25,Wunderground v.1.15,2013-06-07 10:16:00,
2013-06-07 06:21:00,55.4,50.0,29.89,ENE,65,2.0,6.0,82,0.00,,,0.25,Wunderground v.1.15,2013-06-07 10:21:00,
2013-06-07 06:27:00,55.4,50.0,29.89,ENE,58,2.0,6.0,82,0.00,,,0.25,Wunderground v.1.15,2013-06-07 10:27:00,
2013-06-07 06:32:00,55.4,50.0,29.89,ENE,58,2.0,5.0,82,0.00,,,0.26,Wunderground v.1.15,2013-06-07 10:32:00,
2013-06-07 06:37:00,55.4,50.6,29.89,ESE,103,2.0,5.0,84,0.00,,,0.26,Wunderground v.1.15,2013-06-07 10:37:00,
2013-06-07 06:43:00,55.4,50.0,29.89,NNE,30,2.0,3.0,82,0.00,,,0.26,Wunderground v.1.15,2013-06-07 10:43:00,
2013-06-07 06:48:00,55.5,50.1,29.89,ENE,61,2.0,6.0,82,0.00,,,0.26,Wunderground v.1.15,2013-06-07 10:48:00,
2013-06-07 06:54:00,55.5,50.1,29.89,NE,54,2.0,11.0,82,0.00,,,0.26,Wunderground v.1.15,2013-06-07 10:54:00,
2013-06-07 06:59:00,55.5,50.1,29.89,ESE,117,3.0,11.0,82,0.00,,,0.27,Wunderground v.1.15,2013-06-07 10:59:00,
2013-06-07 07:05:00,55.5,50.1,29.89,NE,42,2.0,4.0,82,0.00,,,0.27,Wunderground v.1.15,2013-06-07 11:05:00,
2013-06-07 07:11:00,55.5,50.1,29.89,East,80,2.0,2.0,82,0.00,,,0.27,Wunderground v.1.15,2013-06-07 11:11:00,
2013-06-07 07:17:00,55.5,50.1,29.89,ENE,65,2.0,7.0,82,0.00,,,0.28,Wunderground v.1.15,2013-06-07 11:17:00,
2013-06-07 07:22:00,55.5,50.1,29.89,NE,42,3.0,3.0,82,0.00,,,0.28,Wunderground v.1.15,2013-06-07 11:22:00,
2013-06-07 07:27:00,55.6,50.2,29.89,NE,36,3.0,10.0,82,0.00,,,0.28,Wunderground v.1.15,2013-06-07 11:27:00,
2013-06-07 07:33:00,55.7,50.3,29.88,NE,40,2.0,3.0,82,0.00,,,0.28,Wunderground v.1.15,2013-06-07 11:33:00,
2013-06-07 07:38:00,55.7,50.3,29.88,NE,36,2.0,5.0,82,0.00,,,0.29,Wunderground v.1.15,2013-06-07 11:38:00,
2013-06-07 07:44:00,55.6,50.2,29.89,South,174,3.0,10.0,82,0.00,,,0.29,Wunderground v.1.15,2013-06-07 11:44:00,
2013-06-07 07:50:00,55.6,50.2,29.89,ENE,64,2.0,2.0,82,0.00,,,0.29,Wunderground v.1.15,2013-06-07 11:50:00,
2013-06-07 07:55:00,55.7,50.3,29.89,East,86,2.0,5.0,82,0.00,,,0.29,Wunderground v.1.15,2013-06-07 11:55:00,
2013-06-07 08:01:00,55.8,50.4,29.90,NE,47,2.0,2.0,82,0.00,,,0.30,Wunderground v.1.15,2013-06-07 12:01:00,
2013-06-07 08:06:00,55.8,50.4,29.89,ENE,62,2.0,3.0,82,0.00,,,0.30,Wunderground v.1.15,2013-06-07 12:06:00,
2013-06-07 08:12:00,55.9,50.5,29.89,NNE,19,2.0,4.0,82,0.00,,,0.30,Wunderground v.1.15,2013-06-07 12:12:00,
2013-06-07 08:17:00,55.9,50.5,29.89,ESE,119,2.0,5.0,82,0.00,,,0.30,Wunderground v.1.15,2013-06-07 12:17:00,
2013-06-07 08:22:00,55.9,50.5,29.90,SSW,195,2.0,3.0,82,0.00,,,0.30,Wunderground v.1.15,2013-06-07 12:22:00,
2013-06-07 08:28:00,56.0,50.6,29.90,SSE,157,2.0,3.0,82,0.00,,,0.31,Wunderground v.1.15,2013-06-07 12:28:00,
2013-06-07 08:33:00,56.0,50.6,29.90,NE,42,2.0,2.0,82,0.00,,,0.31,Wunderground v.1.15,2013-06-07 12:33:00,
2013-06-07 08:38:00,56.1,50.7,29.89,SE,140,2.0,4.0,82,0.00,,,0.31,Wunderground v.1.15,2013-06-07 12:38:00,
2013-06-07 08:44:00,56.2,50.8,29.90,ENE,69,3.0,5.0,82,0.00,,,0.31,Wunderground v.1.15,2013-06-07 12:44:00,
2013-06-07 08:49:00,56.2,50.8,29.89,NE,52,3.0,5.0,82,0.00,,,0.31,Wunderground v.1.15,2013-06-07 12:49:00,
2013-06-07 08:55:00,56.4,51.0,29.89,East,82,3.0,5.0,82,0.00,,,0.32,Wunderground v.1.15,2013-06-07 12:55:00,
2013-06-07 09:01:00,56.5,51.1,29.89,SSE,157,3.0,5.0,82,0.00,,,0.32,Wunderground v.1.15,2013-06-07 13:01:00,
2013-06-07 09:07:00,56.4,51.0,29.89,South,170,2.0,6.0,82,0.00,,,0.32,Wunderground v.1.15,2013-06-07 13:07:00,
2013-06-07 09:12:00,56.6,51.2,29.90,South,183,2.0,3.0,82,0.00,,,0.32,Wunderground v.1.15,2013-06-07 13:12:00,
2013-06-07 09:17:00,56.6,51.2,29.90,South,174,2.0,5.0,82,0.00,,,0.32,Wunderground v.1.15,2013-06-07 13:17:00,
2013-06-07 09:23:00,56.7,51.3,29.89,SE,143,3.0,4.0,82,0.00,,,0.33,Wunderground v.1.15,2013-06-07 13:23:00,
2013-06-07 09:28:00,56.8,51.4,29.89,ESE,113,2.0,4.0,82,0.00,,,0.33,Wunderground v.1.15,2013-06-07 13:28:00,
2013-06-07 09:34:00,56.9,51.5,29.89,SSE,148,2.0,5.0,82,0.00,,,0.33,Wunderground v.1.15,2013-06-07 13:34:00,
2013-06-07 09:39:00,56.8,51.4,29.89,SE,145,3.0,5.0,82,0.00,,,0.33,Wunderground v.1.15,2013-06-07 13:39:00,
2013-06-07 09:44:00,56.9,51.5,29.89,SSE,157,3.0,5.0,82,0.00,,,0.33,Wunderground v.1.15,2013-06-07 13:44:00,
2013-06-07 09:50:00,57.1,51.7,29.89,SSE,150,3.0,3.0,82,0.00,,,0.33,Wunderground v.1.15,2013-06-07 13:50:00,
2013-06-07 09:55:00,57.1,51.7,29.89,NE,53,3.0,6.0,82,0.00,,,0.34,Wunderground v.1.15,2013-06-07 13:55:00,
2013-06-07 10:01:00,57.1,51.7,29.89,SE,131,3.0,4.0,82,0.00,,,0.34,Wunderground v.1.15,2013-06-07 14:01:00,
2013-06-07 10:07:00,57.1,51.7,29.89,SSE,150,3.0,5.0,82,0.00,,,0.34,Wunderground v.1.15,2013-06-07 14:07:00,
2013-06-07 10:12:00,57.0,51.9,29.89,ESE,107,3.0,6.0,83,0.00,,,0.34,Wunderground v.1.15,2013-06-07 14:12:00,
2013-06-07 10:17:00,57.0,51.9,29.89,ENE,57,4.0,8.0,83,0.00,,,0.34,Wunderground v.1.15,2013-06-07 14:17:00,
2013-06-07 10:23:00,57.0,51.9,29.89,NW,310,3.0,6.0,83,0.00,,,0.34,Wunderground v.1.15,2013-06-07 14:23:00,
2013-06-07 10:28:00,57.2,52.1,29.89,ESE,119,2.0,6.0,83,0.00,,,0.35,Wunderground v.1.15,2013-06-07 14:28:00,
2013-06-07 10:34:00,57.2,52.1,29.89,ESE,114,3.0,4.0,83,0.00,,,0.35,Wunderground v.1.15,2013-06-07 14:34:00,
2013-06-07 10:39:00,57.2,52.1,29.89,SE,127,2.0,4.0,83,0.00,,,0.35,Wunderground v.1.15,2013-06-07 14:39:00,
2013-06-07 10:45:00,57.1,52.0,29.90,South,183,3.0,8.0,83,0.00,,,0.35,Wunderground v.1.15,2013-06-07 14:45:00,
2013-06-07 10:51:00,57.1,52.3,29.89,SE,128,3.0,3.0,84,0.00,,,0.35,Wunderground v.1.15,2013-06-07 14:51:00,
2013-06-07 10:57:00,57.2,52.1,29.89,SE,132,4.0,6.0,83,0.00,,,0.35,Wunderground v.1.15,2013-06-07 14:57:00,
2013-06-07 11:03:00,57.2,52.1,29.90,SE,127,3.0,5.0,83,0.00,,,0.36,Wunderground v.1.15,2013-06-07 15:03:00,
2013-06-07 11:08:00,57.2,52.1,29.90,SE,139,3.0,5.0,83,0.00,,,0.36,Wunderground v.1.15,2013-06-07 15:08:00,
2013-06-07 11:14:00,57.3,52.2,29.90,ESE,115,4.0,7.0,83,0.00,,,0.36,Wunderground v.1.15,2013-06-07 15:14:00,
2013-06-07 11:20:00,57.4,52.6,29.90,SSE,153,3.0,4.0,84,0.00,,,0.36,Wunderground v.1.15,2013-06-07 15:20:00,
2013-06-07 11:25:00,57.5,52.4,29.90,ENE,77,3.0,6.0,83,0.00,,,0.36,Wunderground v.1.15,2013-06-07 15:25:00,
2013-06-07 11:31:00,57.6,52.5,29.90,ESE,115,3.0,5.0,83,0.00,,,0.37,Wunderground v.1.15,2013-06-07 15:31:00,
2013-06-07 11:36:00,57.5,52.7,29.90,NNW,334,2.0,5.0,84,0.00,,,0.37,Wunderground v.1.15,2013-06-07 15:36:00,
2013-06-07 11:41:00,57.5,52.7,29.90,ENE,63,3.0,6.0,84,0.00,,,0.37,Wunderground v.1.15,2013-06-07 15:41:00,
2013-06-07 11:47:00,57.3,52.5,29.90,ESE,107,3.0,9.0,84,0.00,,,0.37,Wunderground v.1.15,2013-06-07 15:47:00,
2013-06-07 11:52:00,57.3,52.5,29.90,ENE,60,3.0,10.0,84,0.00,,,0.37,Wunderground v.1.15,2013-06-07 15:52:00,
2013-06-07 11:57:00,57.3,52.8,29.89,NE,34,4.0,10.0,85,0.00,,,0.37,Wunderground v.1.15,2013-06-07 15:57:00,
2013-06-07 12:03:00,57.3,52.5,29.90,East,86,3.0,4.0,84,0.00,,,0.37,Wunderground v.1.15,2013-06-07 16:03:00,
2013-06-07 12:08:00,57.5,52.7,29.89,ENE,69,2.0,5.0,84,0.00,,,0.37,Wunderground v.1.15,2013-06-07 16:08:00,
2013-06-07 12:13:00,57.4,52.9,29.90,ENE,75,3.0,5.0,85,0.00,,,0.38,Wunderground v.1.15,2013-06-07 16:13:00,
2013-06-07 12:19:00,57.3,52.8,29.90,SSE,154,4.0,5.0,85,0.00,,,0.38,Wunderground v.1.15,2013-06-07 16:19:00,
2013-06-07 12:24:00,57.3,52.8,29.90,SE,146,3.0,5.0,85,0.00,,,0.38,Wunderground v.1.15,2013-06-07 16:24:00,
2013-06-07 12:29:00,57.4,52.9,29.90,NNE,33,3.0,5.0,85,0.00,,,0.38,Wunderground v.1.15,2013-06-07 16:29:00,
2013-06-07 12:35:00,57.4,52.9,29.89,ESE,115,4.0,8.0,85,0.00,,,0.38,Wunderground v.1.15,2013-06-07 16:35:00,
2013-06-07 12:40:00,57.3,52.8,29.89,ESE,113,5.0,5.0,85,0.00,,,0.38,Wunderground v.1.15,2013-06-07 16:40:00,
2013-06-07 12:46:00,57.3,52.8,29.89,East,91,4.0,17.0,85,0.00,,,0.39,Wunderground v.1.15,2013-06-07 16:46:00,
2013-06-07 12:57:00,57.4,-99.9,29.89,North,32767,-999.0,4.0,255,-99.99,,,0.00,Wunderground v.1.15,2013-06-07 16:57:00,
2013-06-07 13:02:00,57.4,52.9,29.89,SE,144,0.0,4.0,85,0.00,,,0.00,Wunderground v.1.15,2013-06-07 17:02:00,
2013-06-07 13:08:00,57.5,51.0,29.89,NE,41,3.0,5.0,79,0.00,,,0.00,Wunderground v.1.15,2013-06-07 17:08:00,
2013-06-07 13:14:00,57.3,50.8,29.89,NE,53,4.0,6.0,79,0.00,,,0.00,Wunderground v.1.15,2013-06-07 17:14:00,
2013-06-07 13:19:00,57.2,50.7,29.88,SW,235,4.0,6.0,79,0.00,,,0.01,Wunderground v.1.15,2013-06-07 17:19:00,
2013-06-07 13:26:00,57.1,50.6,29.88,ENE,65,3.0,7.0,79,0.00,,,0.01,Wunderground v.1.15,2013-06-07 17:26:00,
2013-06-07 13:31:00,57.2,50.7,29.87,ESE,109,3.0,5.0,79,0.00,,,0.37,Wunderground v.1.15,2013-06-07 17:31:00,
2013-06-07 13:37:00,57.6,50.8,29.87,NE,36,3.0,5.0,78,0.00,,,0.37,Wunderground v.1.15,2013-06-07 17:37:00,
2013-06-07 13:42:00,57.8,51.3,29.87,NNE,29,3.0,7.0,79,0.00,,,0.37,Wunderground v.1.15,2013-06-07 17:42:00,
2013-06-07 13:48:00,57.8,51.3,29.87,ESE,105,3.0,7.0,79,0.00,,,0.37,Wunderground v.1.15,2013-06-07 17:48:00,
2013-06-07 13:53:00,57.6,51.5,29.87,SE,132,3.0,6.0,80,0.00,,,0.37,Wunderground v.1.15,2013-06-07 17:53:00,
2013-06-07 13:58:00,57.7,51.6,29.87,NE,51,4.0,11.0,80,0.00,,,0.38,Wunderground v.1.15,2013-06-07 17:58:00,
2013-06-07 14:03:00,57.5,51.4,29.87,NNE,14,4.0,13.0,80,0.00,,,0.38,Wunderground v.1.15,2013-06-07 18:03:00,
2013-06-07 14:08:00,57.5,51.4,29.87,NE,50,3.0,13.0,80,0.00,,,0.38,Wunderground v.1.15,2013-06-07 18:08:00,
2013-06-07 14:13:00,57.4,51.3,29.87,ENE,59,3.0,4.0,80,0.00,,,0.38,Wunderground v.1.15,2013-06-07 18:13:00,
2013-06-07 14:19:00,57.3,51.2,29.87,NE,51,3.0,7.0,80,0.00,,,0.38,Wunderground v.1.15,2013-06-07 18:19:00,
2013-06-07 14:24:00,57.2,51.1,29.87,SE,141,4.0,6.0,80,0.00,,,0.38,Wunderground v.1.15,2013-06-07 18:24:00,
2013-06-07 14:30:00,57.1,51.0,29.87,SSE,157,3.0,3.0,80,0.00,,,0.38,Wunderground v.1.15,2013-06-07 18:30:00,
2013-06-07 14:37:00,57.2,51.1,29.87,SE,145,2.0,3.0,80,0.00,,,0.39,Wunderground v.1.15,2013-06-07 18:37:00,
2013-06-07 14:43:00,57.1,51.0,29.87,ENE,73,2.0,7.0,80,0.00,,,0.39,Wunderground v.1.15,2013-06-07 18:43:00,
2013-06-07 14:49:00,57.1,51.0,29.87,ESE,115,3.0,7.0,80,0.00,,,0.39,Wunderground v.1.15,2013-06-07 18:49:00,
2013-06-07 14:54:00,57.2,51.1,29.87,ENE,60,3.0,14.0,80,0.00,,,0.39,Wunderground v.1.15,2013-06-07 18:54:00,
2013-06-07 15:00:00,57.2,51.1,29.86,ENE,57,3.0,4.0,80,0.00,,,0.39,Wunderground v.1.15,2013-06-07 19:00:00,
2013-06-07 15:05:00,57.3,51.2,29.86,ENE,74,3.0,11.0,80,0.00,,,0.39,Wunderground v.1.15,2013-06-07 19:05:00,
2013-06-07 15:12:00,57.3,51.2,29.86,East,95,3.0,3.0,80,0.00,,,0.39,Wunderground v.1.15,2013-06-07 19:12:00,
2013-06-07 15:17:00,57.3,51.2,29.86,SSE,151,2.0,10.0,80,0.00,,,0.39,Wunderground v.1.15,2013-06-07 19:17:00,
2013-06-07 15:23:00,57.4,51.3,29.86,NE,36,3.0,6.0,80,0.00,,,0.40,Wunderground v.1.15,2013-06-07 19:23:00,
2013-06-07 15:29:00,57.4,51.3,29.86,ESE,111,3.0,10.0,80,0.00,,,0.40,Wunderground v.1.15,2013-06-07 19:29:00,
2013-06-07 15:35:00,57.4,51.3,29.86,ENE,62,3.0,6.0,80,0.00,,,0.40,Wunderground v.1.15,2013-06-07 19:35:00,
2013-06-07 15:41:00,57.5,51.4,29.86,ESE,112,2.0,3.0,80,0.00,,,0.40,Wunderground v.1.15,2013-06-07 19:41:00,
2013-06-07 15:47:00,57.7,51.6,29.86,NE,35,2.0,5.0,80,0.00,,,0.40,Wunderground v.1.15,2013-06-07 19:47:00,
2013-06-07 15:53:00,57.8,51.7,29.85,ENE,67,3.0,5.0,80,0.00,,,0.40,Wunderground v.1.15,2013-06-07 19:53:00,
2013-06-07 15:59:00,57.9,51.8,29.85,ESE,117,3.0,9.0,80,0.00,,,0.40,Wunderground v.1.15,2013-06-07 19:59:00,
2013-06-07 16:05:00,58.0,52.2,29.85,NNE,29,3.0,7.0,81,0.00,,,0.41,Wunderground v.1.15,2013-06-07 20:05:00,
2013-06-07 16:11:00,58.0,52.2,29.85,South,171,3.0,5.0,81,0.00,,,0.41,Wunderground v.1.15,2013-06-07 20:11:00,
2013-06-07 16:16:00,58.0,52.2,29.85,NE,48,2.0,5.0,81,0.00,,,0.41,Wunderground v.1.15,2013-06-07 20:16:00,
2013-06-07 16:22:00,58.0,52.2,29.85,ENE,62,2.0,4.0,81,0.00,,,0.41,Wunderground v.1.15,2013-06-07 20:22:00,
2013-06-07 16:28:00,58.0,52.2,29.85,NE,55,3.0,6.0,81,0.00,,,0.41,Wunderground v.1.15,2013-06-07 20:28:00,
2013-06-07 16:33:00,57.9,52.1,29.85,NE,40,4.0,4.0,81,0.00,,,0.41,Wunderground v.1.15,2013-06-07 20:33:00,
2013-06-07 16:39:00,57.8,52.0,29.84,North,355,5.0,5.0,81,0.00,,,0.41,Wunderground v.1.15,2013-06-07 20:39:00,
2013-06-07 16:44:00,57.8,52.0,29.84,NW,309,5.0,6.0,81,0.00,,,0.41,Wunderground v.1.15,2013-06-07 20:44:00,
2013-06-07 16:51:00,57.9,52.1,29.84,NNE,24,4.0,4.0,81,0.00,,,0.42,Wunderground v.1.15,2013-06-07 20:51:00,
2013-06-07 16:56:00,57.8,52.3,29.84,NE,51,4.0,7.0,82,0.00,,,0.42,Wunderground v.1.15,2013-06-07 20:56:00,
2013-06-07 17:02:00,57.9,52.4,29.83,East,79,4.0,5.0,82,0.00,,,0.42,Wunderground v.1.15,2013-06-07 21:02:00,
2013-06-07 17:08:00,58.0,52.2,29.84,NNE,19,4.0,7.0,81,0.00,,,0.42,Wunderground v.1.15,2013-06-07 21:08:00,
2013-06-07 17:14:00,58.1,52.6,29.83,WNW,296,3.0,5.0,82,0.00,,,0.42,Wunderground v.1.15,2013-06-07 21:14:00,
2013-06-07 17:19:00,58.1,52.6,29.83,SE,131,4.0,10.0,82,0.00,,,0.42,Wunderground v.1.15,2013-06-07 21:19:00,
2013-06-07 17:25:00,58.1,52.6,29.83,North,9,4.0,13.0,82,0.00,,,0.42,Wunderground v.1.15,2013-06-07 21:25:00,
2013-06-07 17:30:00,58.2,52.7,29.83,East,94,5.0,5.0,82,0.00,,,0.42,Wunderground v.1.15,2013-06-07 21:30:00,
2013-06-07 17:36:00,58.2,52.7,29.82,East,79,4.0,7.0,82,0.00,,,0.42,Wunderground v.1.15,2013-06-07 21:36:00,
2013-06-07 17:42:00,58.2,52.7,29.83,NE,41,4.0,9.0,82,0.00,,,0.42,Wunderground v.1.15,2013-06-07 21:42:00,
2013-06-07 17:48:00,58.2,52.7,29.83,SE,132,4.0,9.0,82,0.00,,,0.43,Wunderground v.1.15,2013-06-07 21:48:00,
2013-06-07 17:54:00,58.2,52.7,29.83,East,81,3.0,4.0,82,0.00,,,0.43,Wunderground v.1.15,2013-06-07 21:54:00,
2013-06-07 18:00:00,58.2,52.7,29.83,ESE,115,3.0,4.0,82,0.00,,,0.43,Wunderground v.1.15,2013-06-07 22:00:00,
2013-06-07 18:05:00,58.1,52.6,29.83,ENE,62,3.0,4.0,82,0.00,,,0.43,Wunderground v.1.15,2013-06-07 22:05:00,
2013-06-07 18:11:00,58.2,52.7,29.83,East,93,3.0,3.0,82,0.00,,,0.43,Wunderground v.1.15,2013-06-07 22:11:00,
2013-06-07 18:18:00,58.1,52.6,29.83,NE,38,3.0,7.0,82,0.00,,,0.43,Wunderground v.1.15,2013-06-07 22:18:00,
2013-06-07 18:24:00,58.1,52.6,29.82,NNE,32,2.0,5.0,82,0.00,,,0.43,Wunderground v.1.15,2013-06-07 22:24:00,
2013-06-07 18:30:00,58.1,52.6,29.82,ENE,57,2.0,2.0,82,0.00,,,0.43,Wunderground v.1.15,2013-06-07 22:30:00,
2013-06-07 18:35:00,58.1,52.6,29.82,SSE,149,3.0,4.0,82,0.00,,,0.43,Wunderground v.1.15,2013-06-07 22:35:00,
2013-06-07 18:41:00,58.0,52.5,29.83,SE,145,3.0,3.0,82,0.00,,,0.43,Wunderground v.1.15,2013-06-07 22:41:00,
2013-06-07 18:46:00,57.9,52.4,29.82,SE,132,3.0,6.0,82,0.00,,,0.43,Wunderground v.1.15,2013-06-07 22:46:00,
2013-06-07 18:51:00,57.8,52.3,29.83,NNW,339,2.0,2.0,82,0.00,,,0.44,Wunderground v.1.15,2013-06-07 22:51:00,
2013-06-07 18:56:00,57.7,52.2,29.82,East,95,2.0,3.0,82,0.00,,,0.44,Wunderground v.1.15,2013-06-07 22:56:00,
2013-06-07 19:02:00,57.6,52.1,29.83,NNE,30,3.0,4.0,82,0.00,,,0.44,Wunderground v.1.15,2013-06-07 23:02:00,
2013-06-07 19:08:00,57.5,52.0,29.82,ENE,67,3.0,4.0,82,0.00,,,0.44,Wunderground v.1.15,2013-06-07 23:08:00,
2013-06-07 19:14:00,57.5,52.0,29.82,NE,43,3.0,7.0,82,0.00,,,0.44,Wunderground v.1.15,2013-06-07 23:14:00,
2013-06-07 19:20:00,57.4,51.9,29.83,SSE,148,2.0,6.0,82,0.00,,,0.44,Wunderground v.1.15,2013-06-07 23:20:00,
2013-06-07 19:27:00,57.4,51.9,29.82,South,180,2.0,6.0,82,0.00,,,0.44,Wunderground v.1.15,2013-06-07 23:27:00,
2013-06-07 19:33:00,57.3,51.9,29.82,North,360,2.0,5.0,82,0.00,,,0.44,Wunderground v.1.15,2013-06-07 23:33:00,
2013-06-07 19:38:00,57.3,51.9,29.82,SSE,148,2.0,5.0,82,0.00,,,0.44,Wunderground v.1.15,2013-06-07 23:38:00,
2013-06-07 19:43:00,57.2,51.8,29.81,SE,142,3.0,6.0,82,0.00,,,0.44,Wunderground v.1.15,2013-06-07 23:43:00,
2013-06-07 19:48:00,57.2,51.8,29.81,ENE,77,3.0,6.0,82,0.00,,,0.44,Wunderground v.1.15,2013-06-07 23:48:00,
2013-06-07 19:54:00,57.2,51.8,29.82,South,178,3.0,6.0,82,0.00,,,0.44,Wunderground v.1.15,2013-06-07 23:54:00,
2013-06-07 19:59:00,57.1,51.7,29.81,NE,38,4.0,6.0,82,0.00,,,0.44,Wunderground v.1.15,2013-06-07 23:59:00,
2013-06-07 20:04:00,57.1,51.7,29.81,ESE,104,3.0,6.0,82,0.00,,,0.44,Wunderground v.1.15,2013-06-08 00:04:00,
2013-06-07 20:10:00,57.0,51.6,29.82,ESE,121,3.0,3.0,82,0.00,,,0.44,Wunderground v.1.15,2013-06-08 00:10:00,
2013-06-07 20:15:00,57.0,51.6,29.82,ESE,119,3.0,5.0,82,0.00,,,0.44,Wunderground v.1.15,2013-06-08 00:15:00,
2013-06-07 20:21:00,56.9,51.5,29.82,NNE,13,3.0,3.0,82,0.00,,,0.44,Wunderground v.1.15,2013-06-08 00:21:00,
2013-06-07 20:26:00,56.9,51.5,29.82,SE,134,3.0,7.0,82,0.00,,,0.45,Wunderground v.1.15,2013-06-08 00:26:00,
2013-06-07 20:31:00,56.9,51.5,29.82,SE,138,3.0,3.0,82,0.00,,,0.45,Wunderground v.1.15,2013-06-08 00:31:00,
2013-06-07 20:37:00,56.8,51.4,29.82,SSW,207,2.0,4.0,82,0.00,,,0.45,Wunderground v.1.15,2013-06-08 00:37:00,
2013-06-07 20:42:00,56.7,51.3,29.82,East,96,2.0,4.0,82,0.00,,,0.45,Wunderground v.1.15,2013-06-08 00:42:00,
2013-06-07 20:48:00,56.6,51.2,29.81,ESE,115,3.0,4.0,82,0.00,,,0.45,Wunderground v.1.15,2013-06-08 00:48:00,
2013-06-07 20:54:00,56.5,51.1,29.81,ENE,71,3.0,7.0,82,0.00,,,0.45,Wunderground v.1.15,2013-06-08 00:54:00,
2013-06-07 21:00:00,56.4,50.6,29.81,SSW,205,2.0,2.0,81,0.00,,,0.45,Wunderground v.1.15,2013-06-08 01:00:00,
2013-06-07 21:05:00,56.2,50.4,29.82,SSE,155,2.0,5.0,81,0.00,,,0.45,Wunderground v.1.15,2013-06-08 01:05:00,
2013-06-07 21:11:00,56.1,50.3,29.81,SE,144,2.0,3.0,81,0.00,,,0.45,Wunderground v.1.15,2013-06-08 01:11:00,
2013-06-07 21:17:00,56.0,50.3,29.81,ESE,121,1.0,5.0,81,0.00,,,0.45,Wunderground v.1.15,2013-06-08 01:17:00,
2013-06-07 21:22:00,56.0,49.9,29.81,ESE,113,1.0,3.0,80,0.00,,,0.45,Wunderground v.1.15,2013-06-08 01:22:00,
2013-06-07 21:28:00,55.9,49.8,29.81,East,88,2.0,3.0,80,0.00,,,0.45,Wunderground v.1.15,2013-06-08 01:28:00,
2013-06-07 21:33:00,55.7,49.6,29.82,ESE,109,2.0,4.0,80,0.00,,,0.45,Wunderground v.1.15,2013-06-08 01:33:00,
2013-06-07 21:39:00,55.7,49.3,29.81,East,94,2.0,4.0,79,0.00,,,0.45,Wunderground v.1.15,2013-06-08 01:39:00,
2013-06-07 21:44:00,55.6,49.5,29.81,NE,40,2.0,7.0,80,0.00,,,0.45,Wunderground v.1.15,2013-06-08 01:44:00,
2013-06-07 21:49:00,55.6,49.2,29.82,South,171,2.0,4.0,79,0.00,,,0.46,Wunderground v.1.15,2013-06-08 01:49:00,
2013-06-07 21:55:00,55.5,49.1,29.82,East,94,1.0,5.0,79,0.00,,,0.46,Wunderground v.1.15,2013-06-08 01:55:00,
2013-06-07 22:01:00,55.6,49.2,29.82,East,98,1.0,2.0,79,0.00,,,0.46,Wunderground v.1.15,2013-06-08 02:01:00,
2013-06-07 22:06:00,55.6,49.2,29.82,SSE,159,1.0,4.0,79,0.00,,,0.46,Wunderground v.1.15,2013-06-08 02:06:00,
2013-06-07 22:12:00,55.5,49.1,29.82,East,100,1.0,2.0,79,0.00,,,0.46,Wunderground v.1.15,2013-06-08 02:12:00,
2013-06-07 22:18:00,55.5,49.1,29.82,East,88,1.0,5.0,79,0.00,,,0.46,Wunderground v.1.15,2013-06-08 02:18:00,
2013-06-07 22:23:00,55.5,49.1,29.82,SE,124,2.0,2.0,79,0.00,,,0.46,Wunderground v.1.15,2013-06-08 02:23:00,
2013-06-07 22:29:00,55.5,49.1,29.81,SSE,148,1.0,4.0,79,0.00,,,0.46,Wunderground v.1.15,2013-06-08 02:29:00,
2013-06-07 22:35:00,55.5,49.1,29.82,ENE,69,1.0,3.0,79,0.00,,,0.46,Wunderground v.1.15,2013-06-08 02:35:00,
2013-06-07 22:40:00,55.5,49.1,29.81,ESE,117,1.0,3.0,79,0.00,,,0.46,Wunderground v.1.15,2013-06-08 02:40:00,
2013-06-07 22:46:00,55.5,49.1,29.81,ENE,61,1.0,3.0,79,0.00,,,0.46,Wunderground v.1.15,2013-06-08 02:46:00,
2013-06-07 22:52:00,55.5,49.1,29.81,ENE,57,1.0,2.0,79,0.00,,,0.46,Wunderground v.1.15,2013-06-08 02:52:00,
2013-06-07 22:57:00,55.5,49.1,29.81,NE,44,1.0,2.0,79,0.00,,,0.46,Wunderground v.1.15,2013-06-08 02:57:00,
2013-06-07 23:03:00,55.5,49.1,29.81,East,94,1.0,4.0,79,0.00,,,0.46,Wunderground v.1.15,2013-06-08 03:03:00,
2013-06-07 23:09:00,55.5,49.1,29.80,East,85,1.0,7.0,79,0.00,,,0.46,Wunderground v.1.15,2013-06-08 03:09:00,
2013-06-07 23:15:00,55.5,49.1,29.80,East,86,1.0,2.0,79,0.00,,,0.46,Wunderground v.1.15,2013-06-08 03:15:00,
2013-06-07 23:21:00,55.5,49.1,29.80,East,85,1.0,1.0,79,0.00,,,0.46,Wunderground v.1.15,2013-06-08 03:21:00,
2013-06-07 23:27:00,55.5,49.1,29.80,East,92,1.0,5.0,79,0.00,,,0.47,Wunderground v.1.15,2013-06-08 03:27:00,
2013-06-07 23:32:00,55.5,48.8,29.80,East,96,1.0,1.0,78,0.00,,,0.47,Wunderground v.1.15,2013-06-08 03:32:00,
2013-06-07 23:38:00,55.5,48.8,29.80,ESE,117,0.0,2.0,78,0.00,,,0.47,Wunderground v.1.15,2013-06-08 03:38:00,
2013-06-07 23:44:00,55.5,48.8,29.80,ESE,105,0.0,1.0,78,0.00,,,0.47,Wunderground v.1.15,2013-06-08 03:44:00,
2013-06-07 23:49:00,55.5,48.8,29.80,East,93,0.0,0.0,78,0.00,,,0.47,Wunderground v.1.15,2013-06-08 03:49:00,
2013-06-07 23:55:00,55.5,48.8,29.79,East,88,1.0,3.0,78,0.00,,,0.47,Wunderground v.1.15,2013-06-08 03:55:00,